TimeCDT,TemperatureF,Dew PointF,Humidity,Sea Level PressureIn,VisibilityMPH,Wind Direction,Wind SpeedMPH,Gust SpeedMPH,PrecipitationIn,Events,Conditions,WindDirDegrees,DateUTC
12:15 AM,77.4,72.0,83,29.91,10.0,Calm,Calm,-,N/A,,Clear,0,2013-10-03 05:15:00
12:35 AM,77.2,71.8,83,29.91,10.0,Calm,Calm,-,N/A,,Clear,0,2013-10-03 05:35:00
12:55 AM,76.5,71.6,85,29.91,10.0,Calm,Calm,-,N/A,,Clear,0,2013-10-03 05:55:00
1:15 AM,76.1,71.6,86,29.91,10.0,Calm,Calm,-,N/A,,Clear,0,2013-10-03 06:15:00
1:35 AM,76.1,71.6,86,29.90,10.0,Calm,Calm,-,N/A,,Clear,0,2013-10-03 06:35:00
1:55 AM,75.2,70.9,86,29.90,10.0,Calm,Calm,-,N/A,,Clear,0,2013-10-03 06:55:00
2:15 AM,75.2,71.1,87,29.89,10.0,Calm,Calm,-,N/A,,Clear,0,2013-10-03 07:15:00
2:35 AM,75.2,71.1,87,29.89,10.0,Calm,Calm,-,N/A,,Clear,0,2013-10-03 07:35:00
2:55 AM,75.0,71.1,87,29.88,10.0,Calm,Calm,-,N/A,,Clear,0,2013-10-03 07:55:00
3:15 AM,75.2,71.1,87,29.88,10.0,Calm,Calm,-,N/A,,Clear,0,2013-10-03 08:15:00
3:35 AM,74.7,70.9,88,29.87,10.0,Calm,Calm,-,N/A,,Clear,0,2013-10-03 08:35:00
3:55 AM,74.5,70.7,88,29.87,10.0,Calm,Calm,-,N/A,,Clear,0,2013-10-03 08:55:00
4:15 AM,73.9,70.3,88,29.87,10.0,Calm,Calm,-,N/A,,Clear,0,2013-10-03 09:15:00
4:35 AM,73.8,70.2,88,29.86,10.0,Calm,Calm,-,N/A,,Clear,0,2013-10-03 09:35:00
4:55 AM,73.8,70.3,89,29.86,10.0,Calm,Calm,-,N/A,,Clear,0,2013-10-03 09:55:00
5:15 AM,74.5,71.1,89,29.86,10.0,Calm,Calm,-,N/A,,Clear,0,2013-10-03 10:15:00
5:35 AM,74.7,71.2,89,29.86,10.0,Calm,Calm,-,N/A,,Scattered Clouds,0,2013-10-03 10:35:00
5:55 AM,74.5,71.1,89,29.86,10.0,Calm,Calm,-,N/A,,Scattered Clouds,0,2013-10-03 10:55:00
6:15 AM,74.3,71.1,90,29.87,10.0,Calm,Calm,-,N/A,,Clear,0,2013-10-03 11:15:00
6:35 AM,74.3,70.9,89,29.86,10.0,Calm,Calm,-,N/A,,Clear,0,2013-10-03 11:35:00
6:55 AM,73.8,70.7,90,29.87,10.0,Calm,Calm,-,N/A,,Clear,0,2013-10-03 11:55:00
7:15 AM,73.8,70.7,90,29.87,7.0,Calm,Calm,-,N/A,,Clear,0,2013-10-03 12:15:00
7:35 AM,73.8,70.5,90,29.88,7.0,Calm,Calm,-,N/A,,Clear,0,2013-10-03 12:35:00
7:55 AM,73.8,70.7,90,29.88,3.0,Calm,Calm,-,N/A,,Clear,0,2013-10-03 12:55:00
8:15 AM,74.5,71.6,91,29.89,7.0,Calm,Calm,-,N/A,,Clear,0,2013-10-03 13:15:00
8:35 AM,76.1,72.9,90,29.89,7.0,Calm,Calm,-,N/A,,Clear,0,2013-10-03 13:35:00
8:55 AM,78.1,74.3,88,29.90,10.0,Calm,Calm,-,N/A,,Clear,0,2013-10-03 13:55:00
9:15 AM,80.1,74.3,82,29.90,10.0,Calm,Calm,-,N/A,,Clear,0,2013-10-03 14:15:00
9:35 AM,82.2,73.4,75,29.90,10.0,Calm,Calm,-,N/A,,Clear,0,2013-10-03 14:35:00
9:55 AM,83.8,73.2,70,29.91,7.0,Calm,Calm,-,N/A,,Clear,0,2013-10-03 14:55:00
10:15 AM,84.6,73.0,68,29.91,7.0,SSE,9.2,-,N/A,,Scattered Clouds,160,2013-10-03 15:15:00
10:35 AM,85.8,72.7,65,29.91,7.0,SSE,11.5,-,N/A,,Scattered Clouds,150,2013-10-03 15:35:00
10:55 AM,85.6,72.5,65,29.91,7.0,South,9.2,-,N/A,,Scattered Clouds,170,2013-10-03 15:55:00
11:15 AM,86.9,72.1,61,29.91,7.0,South,9.2,-,N/A,,Scattered Clouds,180,2013-10-03 16:15:00
11:35 AM,88.5,72.3,59,29.91,7.0,SSE,10.4,-,N/A,,Mostly Cloudy,160,2013-10-03 16:35:00
11:55 AM,87.3,71.4,59,29.90,10.0,SSE,8.1,-,N/A,,Mostly Cloudy,150,2013-10-03 16:55:00
12:15 PM,88.3,71.8,58,29.90,10.0,SSE,6.9,-,N/A,,Mostly Cloudy,160,2013-10-03 17:15:00
12:35 PM,90.0,71.2,54,29.89,10.0,SSE,6.9,16.1,N/A,,Scattered Clouds,150,2013-10-03 17:35:00
12:55 PM,91.6,70.5,50,29.89,10.0,SSE,10.4,-,N/A,,Scattered Clouds,160,2013-10-03 17:55:00
1:15 PM,91.8,70.0,49,29.88,10.0,SSE,12.7,16.1,N/A,,Scattered Clouds,160,2013-10-03 18:15:00
1:35 PM,91.6,69.6,48,29.87,10.0,SE,10.4,-,N/A,,Clear,140,2013-10-03 18:35:00
1:55 PM,92.3,68.2,45,29.86,7.0,SE,10.4,16.1,N/A,,Scattered Clouds,140,2013-10-03 18:55:00
2:15 PM,92.7,67.6,44,29.85,7.0,ESE,10.4,-,N/A,,Scattered Clouds,120,2013-10-03 19:15:00
2:35 PM,91.4,67.8,46,29.85,10.0,ESE,4.6,-,N/A,,Mostly Cloudy,120,2013-10-03 19:35:00
2:55 PM,92.3,66.6,43,29.84,7.0,SSE,9.2,-,N/A,,Mostly Cloudy,150,2013-10-03 19:55:00
3:15 PM,91.9,66.7,43,29.84,10.0,SSE,6.9,-,N/A,,Scattered Clouds,150,2013-10-03 20:15:00
3:35 PM,92.5,65.5,41,29.83,10.0,ESE,6.9,-,N/A,,Mostly Cloudy,120,2013-10-03 20:35:00
3:55 PM,95.0,65.1,37,29.82,10.0,ESE,8.1,-,N/A,,Mostly Cloudy,120,2013-10-03 20:55:00
4:15 PM,94.5,67.6,41,29.82,10.0,SE,11.5,16.1,N/A,,Mostly Cloudy,130,2013-10-03 21:15:00
4:35 PM,93.4,67.5,42,29.82,7.0,SSE,8.1,-,N/A,,Scattered Clouds,160,2013-10-03 21:35:00
4:55 PM,93.6,67.1,42,29.81,5.0,SSE,11.5,-,N/A,,Haze,160,2013-10-03 21:55:00
5:15 PM,92.3,67.6,44,29.81,7.0,SSE,10.4,-,N/A,,Scattered Clouds,160,2013-10-03 22:15:00
5:35 PM,92.1,68.9,46,29.81,7.0,SE,12.7,-,N/A,,Clear,130,2013-10-03 22:35:00
5:55 PM,91.6,68.2,46,29.81,10.0,SE,12.7,-,N/A,,Clear,130,2013-10-03 22:55:00
6:15 PM,90.5,68.4,48,29.81,10.0,SSE,6.9,-,N/A,,Clear,150,2013-10-03 23:15:00
6:35 PM,89.8,68.9,50,29.81,10.0,SE,10.4,16.1,N/A,,Clear,130,2013-10-03 23:35:00
6:55 PM,88.7,68.9,52,29.82,10.0,SSE,10.4,-,N/A,,Clear,150,2013-10-03 23:55:00
7:15 PM,86.9,69.4,56,29.82,10.0,SSE,8.1,-,N/A,,Clear,150,2013-10-04 00:15:00
7:35 PM,85.8,69.3,58,29.82,10.0,SE,9.2,-,N/A,,Clear,140,2013-10-04 00:35:00
7:55 PM,85.1,69.3,59,29.83,10.0,SE,10.4,-,N/A,,Clear,140,2013-10-04 00:55:00
8:15 PM,84.0,69.1,61,29.84,10.0,SE,8.1,-,N/A,,Clear,140,2013-10-04 01:15:00
8:35 PM,83.3,69.8,64,29.85,10.0,Calm,Calm,-,N/A,,Clear,0,2013-10-04 01:35:00
8:55 PM,82.6,69.4,64,29.85,10.0,Calm,Calm,-,N/A,,Clear,0,2013-10-04 01:55:00
9:15 PM,81.9,69.8,67,29.86,10.0,Calm,Calm,-,N/A,,Clear,0,2013-10-04 02:15:00
9:35 PM,81.1,70.0,69,29.87,10.0,Calm,Calm,-,N/A,,Clear,0,2013-10-04 02:35:00
9:55 PM,79.7,69.8,72,29.87,10.0,Calm,Calm,-,N/A,,Clear,0,2013-10-04 02:55:00
10:15 PM,79.3,70.5,74,29.88,10.0,Calm,Calm,-,N/A,,Clear,0,2013-10-04 03:15:00
10:35 PM,78.6,70.7,77,29.88,10.0,Calm,Calm,-,N/A,,Clear,0,2013-10-04 03:35:00
11:35 PM,76.6,70.7,82,29.88,10.0,Calm,Calm,-,N/A,,Clear,0,2013-10-04 04:35:00
11:55 PM,76.3,70.7,83,29.88,10.0,Calm,Calm,-,N/A,,Clear,0,2013-10-04 04:55:00